Wind_Speed
2 5 7 7 5 4 3 11 12 10 7 7 7 7 9 9 13 15 13 14 12 13 12 13 13 13 12 11 10 9 6 6 6 8 8 8 7 7 7 8 9 9 9 10 9 10 10 11 12
3 5 7 6 2 2 2 10 11 10 7 8 8 10 8 11 14 15 14 12 10 12 12 13 12 13 13 12 12 10 8 6 5 6 7 7 6 6 6 7 8 8 7 8 8 8 8 10 11
4 5 4 6 5 4 8 18 15 11 8 8 8 10 9 9 11 12 13 11 10 11 11 12 12 13 12 12 12 12 11 8 6 6 7 7 6 6 7 6 7 7 7 7 5 5 7 9 11
5 2 3 6 8 10 4 12 14 10 6 7 9 9 9 8 10 12 11 11 11 10 11 11 12 12 12 11 12 12 12 10 9 8 8 7 7 6 6 6 7 7 7 8 7 1 9 14 12
5 3 1 6 9 14 15 16 14 13 9 7 7 8 10 10 9 10 10 10 10 9 10 10 11 11 11 10 9 11 11 10 12 13 11 10 7 7 8 8 8 8 7 9 12 16 12 11 10
4 12 9 7 8 15 22 16 17 13 10 7 8 7 9 10 10 9 10 9 8 8 9 9 9 10 9 8 8 10 10 9 10 11 12 11 11 9 10 9 11 10 9 10 12 11 9 8 7
4 8 13 2 4 7 19 17 21 18 13 7 7 8 8 11 9 11 9 9 9 9 9 9 8 8 8 8 8 9 9 8 7 7 11 11 10 9 10 9 11 12 11 10 9 6 4 7 8
2 3 3 14 10 14 20 25 25 24 19 11 8 8 9 10 10 11 10 8 8 9 8 8 7 9 8 7 6 7 7 7 7 5 7 7 9 9 10 10 12 13 10 9 8 8 8 6 12
3 12 4 8 5 4 16 24 21 20 17 13 11 10 7 9 10 11 11 10 8 8 8 7 8 8 8 6 6 6 5 6 6 6 5 6 8 8 9 11 11 10 10 9 12 15 19 17 11
9 3 3 3 2 1 16 25 21 15 18 15 11 9 8 6 7 9 9 9 7 7 7 6 8 10 8 7 7 9 9 7 6 6 8 8 9 8 9 10 10 9 10 12 16 15 19 11 11
8 1 6 4 4 4 7 8 7 24 23 14 9 10 9 7 6 6 7 8 8 5 6 6 9 9 6 9 10 9 10 8 8 6 7 8 9 10 9 8 9 10 9 12 12 15 16 15 12
15 13 5 4 4 6 7 5 14 19 21 17 10 9 9 9 8 8 8 6 7 5 5 5 8 11 7 8 7 10 11 10 13 11 8 7 8 10 14 10 9 10 4 12 15 15 18 16 13
17 9 8 3 4 7 6 5 3 11 24 18 11 9 8 9 8 7 7 6 6 5 5 4 6 7 11 10 10 10 11 13 13 13 13 11 11 13 12 12 9 11 11 14 16 15 18 16 12
13 10 8 5 3 5 3 7 5 9 8 12 10 9 9 10 9 8 8 7 6 6 5 4 5 6 9 9 10 11 10 11 12 16 16 14 13 13 11 11 11 12 12 13 16 18 17 13 12
18 16 13 10 9 7 1 3 10 7 16 13 10 9 9 10 10 9 9 8 7 6 6 4 4 6 7 9 9 8 7 9 11 15 18 14 11 11 10 9 11 14 13 14 15 15 14 13 13
16 16 13 12 12 12 11 8 9 11 13 18 12 11 11 11 11 10 10 9 9 7 7 5 4 6 7 7 8 4 7 5 16 14 15 15 12 11 13 10 12 12 14 15 15 17 15 15 15
22 18 14 12 12 15 15 20 18 13 12 18 16 15 15 12 11 11 11 11 10 9 8 7 6 5 6 8 8 5 8 12 13 5 18 13 9 12 11 10 11 12 14 14 17 19 17 15 15
21 18 16 16 18 22 15 10 11 12 12 18 18 18 18 15 14 13 13 13 11 9 9 9 6 5 5 7 8 6 8 9 8 8 14 12 9 11 12 12 11 13 13 12 15 16 16 15 15
23 20 16 23 22 20 18 18 12 16 12 14 23 22 18 17 15 14 13 14 13 11 11 11 8 7 6 7 7 6 5 5 11 10 12 11 10 10 11 12 13 12 13 12 12 12 14 14 13
29 19 30 29 15 22 22 16 19 12 11 16 20 21 19 19 17 15 13 14 15 13 11 12 9 9 8 8 8 6 4 4 7 8 8 11 11 9 13 13 11 12 13 12 13 12 12 13 13
33 28 28 27 23 22 21 11 2 5 16 18 21 18 26 23 20 17 15 16 16 15 14 13 9 8 9 8 8 6 5 2 5 8 9 10 10 11 11 13 13 11 12 12 12 12 11 11 12
32 29 17 34 16 20 11 12 18 16 14 17 22 18 24 24 27 20 19 17 17 18 15 13 11 9 10 8 8 9 9 5 5 7 7 6 7 9 9 12 14 12 11 12 12 11 11 9 11
31 31 22 28 32 16 19 22 20 23 21 18 10 5 17 23 23 20 19 18 18 17 17 16 14 12 11 11 8 11 10 5 5 5 14 4 5 7 7 9 11 11 10 11 11 12 11 10 9
30 38 21 18 19 19 20 13 29 24 24 12 18 19 16 22 28 21 19 18 17 16 16 16 16 15 12 12 11 10 6 5 8 9 5 3 3 4 5 6 8 9 10 8 9 9 11 10 12
39 31 29 24 21 23 17 19 31 28 24 14 19 14 18 19 24 22 17 16 16 16 16 17 18 18 15 12 12 12 11 10 8 7 6 3 1 2 3 2 3 6 6 7 6 8 8 9 10
38 27 29 32 25 19 20 29 36 41 15 21 19 19 19 19 22 18 19 18 21 21 18 19 21 21 20 16 13 14 13 12 10 8 4 4 5 3 4 4 3 3 3 5 5 5 6 6 8
31 37 26 14 16 16 31 37 45 43 42 37 32 26 32 20 19 25 22 22 23 18 15 20 22 23 22 21 17 15 16 16 13 9 10 11 8 4 5 4 4 5 4 3 5 4 5 7 8
30 32 36 33 29 24 30 38 42 41 46 47 40 26 27 19 29 31 25 24 25 25 20 22 22 21 23 23 23 20 18 17 16 14 13 15 11 8 5 3 3 2 5 5 6 6 7 7 8
38 35 43 28 19 25 27 33 40 45 43 42 37 36 31 30 27 26 20 27 34 27 26 25 24 20 21 23 23 22 21 20 18 16 15 17 14 10 7 7 3 2 5 4 5 6 7 9 10
46 35 37 36 36 25 30 45 34 45 45 37 37 33 34 33 35 31 27 22 22 27 32 26 21 23 22 21 21 22 23 22 20 20 19 18 19 13 11 9 6 5 5 4 6 7 8 10 10
Wind_Direction
143 141 144 143 158 319 93 128 132 129 118 114 113 108 112 96 109 114 107 109 98 99 91 89 92 91 88 89 92 92 100 118 135 135 132 122 116 101 88 88 86 86 90 91 91 96 91 95 99
135 140 151 163 174 258 138 154 134 140 123 112 132 109 116 106 116 123 116 105 95 90 84 88 92 88 86 85 84 83 87 110 130 143 138 136 123 106 86 87 94 98 99 98 106 108 104 110 107
132 115 180 206 211 210 224 168 144 147 136 124 110 119 115 120 124 128 123 115 100 90 90 91 85 84 86 80 75 73 72 82 112 136 141 134 123 108 93 82 83 90 96 98 98 104 103 119 116
77 355 280 246 226 216 238 131 154 144 132 108 127 126 120 127 132 127 127 115 107 99 94 92 86 87 84 77 75 68 69 68 80 95 120 129 113 95 88 84 80 81 86 88 55 86 111 124 115
66 335 61 262 236 219 205 160 169 156 154 122 110 130 131 131 130 130 126 118 113 106 104 97 92 90 86 83 74 69 68 74 85 91 101 105 97 91 88 90 91 85 83 84 70 85 104 110 111
51 354 349 284 254 211 193 190 172 166 158 145 128 140 138 134 136 132 126 121 113 105 101 96 90 89 84 79 69 65 65 72 89 93 92 93 88 88 89 92 90 86 88 89 83 89 103 109 119
51 3 10 354 155 193 190 195 174 174 161 143 133 145 147 136 142 130 126 124 118 106 103 101 90 82 72 66 57 56 65 70 74 81 91 88 90 89 89 85 87 89 85 81 71 70 120 148 135
130 146 54 55 85 175 175 178 182 179 157 169 152 155 156 143 143 131 128 123 121 103 98 90 80 76 68 60 51 52 67 74 74 81 77 85 88 91 91 84 81 86 84 92 84 35 158 152 148
219 44 121 68 90 163 193 189 186 147 160 169 156 153 163 152 150 143 138 128 119 105 98 93 83 75 68 66 55 58 61 82 82 82 106 116 94 90 91 88 86 98 105 101 109 84 125 129 136
154 191 89 38 68 290 197 199 212 186 174 171 157 156 152 165 164 150 140 131 122 117 107 95 91 68 66 60 61 66 66 81 104 100 78 81 91 87 88 93 98 95 90 100 116 111 118 128 121
190 334 143 80 313 258 204 221 180 174 172 161 158 145 155 156 167 162 142 139 137 118 111 96 90 92 75 62 59 77 71 75 95 101 91 92 102 92 76 92 107 94 87 96 106 117 123 121 121
174 256 151 119 55 52 164 187 214 194 159 159 158 148 168 164 171 182 159 158 151 127 105 94 98 103 86 84 74 78 79 77 87 94 113 112 115 103 110 98 100 100 117 126 138 126 111 112 112
218 199 165 139 65 77 118 141 101 209 152 156 148 161 169 180 174 195 182 169 163 149 113 101 90 88 101 103 96 73 74 77 83 87 101 94 102 111 109 114 101 95 95 81 106 110 102 105 105
204 194 161 204 202 102 105 127 108 179 173 134 175 180 167 191 179 190 201 188 175 155 135 135 109 95 96 95 82 78 81 91 101 98 98 96 100 114 116 104 94 92 94 104 108 105 107 112 106
200 188 194 204 209 232 197 191 215 180 178 184 197 189 178 191 192 195 206 200 191 173 159 147 111 102 107 95 83 93 79 65 74 90 101 104 99 98 116 111 105 102 102 97 104 106 108 108 109
205 204 205 211 224 234 230 225 224 208 203 194 202 205 204 199 194 194 202 210 202 195 169 164 131 117 117 109 97 84 52 109 92 81 82 94 102 107 105 105 109 99 94 97 105 106 103 108 113
211 214 212 226 227 239 227 212 221 191 212 201 208 212 213 205 196 192 196 210 205 202 186 177 148 113 119 118 102 81 68 36 36 46 89 81 96 104 112 118 108 94 91 96 95 97 100 105 112
211 223 225 225 240 248 237 260 187 175 219 213 209 214 212 209 202 196 198 203 207 205 192 189 169 141 111 118 111 82 74 91 107 75 67 85 90 98 109 118 112 103 97 100 102 103 99 103 104
205 207 241 257 181 244 255 227 229 192 218 235 222 217 216 214 211 207 204 199 205 202 199 195 176 147 119 141 144 117 82 101 75 67 79 86 89 94 95 115 114 113 109 104 99 101 100 104 104
201 203 217 235 203 218 244 237 273 208 232 208 212 226 219 219 213 215 206 205 204 205 205 205 190 154 155 170 168 131 106 80 93 92 84 88 90 85 86 102 113 117 115 114 112 109 104 104 114
204 195 234 246 183 217 246 276 131 303 248 256 234 244 235 229 213 213 212 213 203 201 210 208 199 177 175 186 170 147 79 306 85 76 69 74 83 83 82 90 108 119 120 118 117 118 120 116 124
204 188 206 256 197 220 249 283 285 285 262 252 248 244 214 230 206 209 212 212 208 201 207 210 205 192 186 200 180 172 176 173 122 86 68 67 79 87 86 79 87 102 119 122 125 124 126 126 132
203 173 229 238 234 213 234 226 247 266 273 249 221 200 216 206 208 210 217 211 215 208 200 210 210 207 194 193 206 199 185 174 99 119 154 109 75 70 85 90 85 92 104 122 131 134 131 134 140
182 183 196 225 214 218 222 205 258 242 220 242 231 243 241 234 222 210 215 220 218 221 212 208 217 214 209 197 204 220 212 169 196 146 138 122 105 89 59 71 91 83 89 112 125 126 130 144 148
197 183 202 199 206 213 222 221 241 267 194 168 216 232 233 239 212 205 216 225 227 222 218 218 218 217 214 210 201 210 209 218 220 180 149 143 196 131 97 77 79 93 92 90 118 128 132 147 156
205 187 206 208 213 214 186 237 240 234 238 257 272 266 257 224 197 209 208 229 223 220 210 223 217 216 213 214 208 204 207 223 222 223 163 193 213 189 131 221 163 118 108 104 121 145 155 163 165
223 191 197 205 212 208 225 221 230 236 248 247 240 241 238 233 214 211 216 216 228 227 216 222 224 221 215 213 211 208 208 212 223 229 218 219 220 220 205 197 204 166 159 169 168 183 172 180 187
187 206 186 192 218 212 230 242 251 250 247 247 246 245 250 221 229 225 209 214 219 209 226 211 226 221 227 221 216 210 212 215 218 220 223 235 224 227 246 258 237 207 189 188 202 206 219 210 200
202 193 190 195 204 217 226 225 243 244 249 256 256 250 245 242 236 266 245 235 207 209 208 213 209 222 225 231 229 224 218 216 221 227 231 241 236 233 217 243 233 231 245 214 221 211 228 232 227
212 206 202 194 184 211 215 201 214 249 253 250 252 240 235 236 245 251 252 259 234 218 209 194 233 226 226 224 233 229 227 229 231 230 232 236 253 218 230 230 234 229 219 242 241 242 226 231 239
Height
5886 5885 5886 5887 5890 5886 5884 5884 5888 5891 5892 5892 5892 5891 5891 5892 5891 5895 5895 5894 5895 5895 5895 5895 5896 5896 5896 5896 5896 5896 5896 5896 5896 5896 5897 5898 5898 5899 5899 5899 5900 5900 5901 5901 5902 5903 5904 5905 5905
5886 5886 5887 5888 5889 5888 5887 5887 5890 5892 5893 5893 5892 5892 5893 5894 5894 5895 5896 5897 5897 5898 5898 5898 5898 5898 5899 5898 5898 5898 5898 5898 5898 5898 5899 5900 5901 5901 5901 5901 5902 5902 5903 5904 5905 5906 5907 5908 5908
5887 5887 5888 5888 5888 5889 5882 5888 5891 5893 5893 5894 5894 5895 5896 5897 5896 5897 5898 5899 5900 5901 5901 5900 5900 5901 5901 5901 5901 5900 5900 5900 5899 5900 5901 5902 5903 5903 5903 5903 5903 5904 5905 5905 5906 5907 5908 5909 5910
5887 5887 5887 5886 5888 5889 5887 5889 5892 5894 5895 5895 5895 5896 5897 5898 5899 5899 5901 5901 5902 5903 5903 5902 5903 5903 5903 5904 5903 5903 5903 5902 5902 5903 5904 5904 5905 5905 5905 5905 5905 5906 5906 5908 5909 5909 5911 5911 5913
5887 5885 5884 5884 5886 5887 5888 5890 5892 5894 5896 5896 5898 5898 5898 5900 5901 5902 5903 5904 5905 5905 5905 5906 5906 5906 5906 5906 5906 5906 5906 5905 5905 5905 5906 5906 5907 5907 5907 5907 5908 5909 5910 5911 5913 5913 5915 5915 5916
5888 5883 5881 5881 5883 5884 5886 5890 5893 5895 5896 5897 5898 5899 5900 5901 5902 5903 5905 5907 5906 5907 5908 5908 5909 5909 5909 5909 5909 5909 5908 5909 5909 5908 5908 5908 5909 5909 5910 5910 5910 5911 5913 5914 5915 5916 5917 5917 5918
5887 5885 5883 5881 5882 5883 5886 5889 5891 5895 5895 5899 5899 5900 5902 5902 5904 5904 5906 5908 5909 5909 5910 5911 5911 5911 5911 5911 5911 5911 5910 5911 5911 5911 5910 5910 5911 5911 5912 5912 5913 5914 5915 5916 5917 5917 5918 5919 5920
5885 5882 5883 5882 5883 5885 5887 5889 5890 5891 5896 5899 5900 5901 5903 5905 5906 5907 5908 5910 5910 5911 5913 5913 5913 5913 5913 5913 5913 5913 5913 5913 5912 5912 5913 5913 5913 5913 5914 5915 5916 5916 5916 5917 5917 5916 5916 5919 5922
5884 5874 5883 5885 5886 5888 5888 5890 5890 5880 5894 5899 5900 5902 5905 5906 5907 5908 5909 5911 5912 5914 5914 5915 5915 5916 5916 5915 5915 5915 5914 5914 5914 5915 5913 5913 5914 5916 5917 5918 5918 5916 5916 5916 5916 5916 5918 5922 5925
5885 5885 5883 5885 5888 5888 5889 5892 5891 5895 5897 5899 5900 5902 5905 5908 5909 5910 5912 5913 5914 5915 5916 5916 5917 5918 5918 5918 5917 5917 5917 5916 5916 5916 5915 5916 5916 5918 5919 5919 5918 5918 5920 5919 5920 5919 5922 5925 5928
5885 5856 5886 5886 5886 5888 5888 5890 5892 5896 5897 5899 5903 5902 5906 5908 5910 5912 5914 5915 5916 5916 5917 5917 5920 5920 5922 5920 5919 5920 5919 5919 5917 5917 5917 5919 5919 5921 5922 5922 5919 5921 5921 5925 5927 5924 5924 5927 5931
5885 5883 5885 5888 5888 5887 5889 5889 5892 5894 5881 5898 5902 5904 5906 5908 5911 5913 5915 5916 5918 5918 5919 5919 5921 5923 5923 5921 5921 5923 5923 5923 5921 5921 5921 5922 5922 5922 5910 5923 5922 5923 5918 5904 5927 5929 5927 5929 5934
5885 5883 5888 5890 5892 5890 5891 5892 5896 5895 5863 5896 5902 5906 5907 5909 5912 5915 5916 5918 5919 5920 5921 5921 5922 5923 5924 5925 5924 5925 5925 5924 5923 5923 5923 5924 5925 5926 5926 5927 5926 5926 5926 5924 5931 5930 5929 5933 5937
5886 5889 5888 5893 5894 5895 5894 5894 5896 5899 5894 5897 5905 5907 5908 5911 5912 5915 5917 5919 5920 5921 5922 5924 5924 5925 5925 5926 5926 5925 5924 5921 5923 5921 5923 5926 5928 5929 5930 5930 5929 5928 5929 5928 5930 5930 5932 5937 5939
5886 5889 5892 5894 5895 5895 5896 5896 5899 5897 5902 5904 5907 5907 5908 5911 5913 5915 5918 5920 5921 5923 5924 5925 5926 5927 5927 5928 5928 5925 5924 5928 5929 5926 5923 5927 5929 5931 5931 5932 5933 5933 5933 5933 5934 5936 5938 5941 5943
5886 5889 5892 5895 5895 5895 5898 5899 5896 5898 5899 5903 5905 5907 5909 5911 5913 5915 5918 5920 5922 5923 5925 5926 5927 5929 5930 5930 5930 5927 5928 5925 5927 5931 5929 5928 5932 5933 5934 5934 5935 5937 5937 5939 5940 5941 5942 5944 5946
5884 5888 5891 5894 5894 5894 5896 5895 5890 5898 5900 5901 5905 5907 5909 5911 5913 5915 5917 5920 5922 5924 5925 5927 5929 5931 5933 5933 5933 5930 5933 5927 5923 5929 5928 5931 5935 5935 5937 5937 5938 5939 5941 5943 5944 5945 5946 5947 5948
5884 5888 5891 5892 5893 5889 5895 5899 5896 5898 5902 5903 5905 5906 5908 5911 5912 5914 5916 5919 5922 5924 5926 5928 5930 5933 5935 5935 5935 5932 5933 5935 5935 5933 5932 5935 5939 5939 5940 5940 5940 5941 5943 5946 5947 5948 5950 5950 5952
5881 5886 5888 5887 5887 5889 5893 5897 5899 5897 5901 5904 5905 5906 5908 5910 5912 5913 5915 5918 5921 5924 5926 5927 5930 5934 5936 5936 5935 5936 5934 5932 5935 5938 5935 5939 5942 5942 5943 5943 5942 5943 5944 5947 5950 5951 5952 5953 5956
5874 5883 5884 5884 5883 5886 5889 5891 5889 5896 5900 5901 5903 5904 5906 5908 5911 5913 5915 5918 5919 5923 5925 5927 5931 5933 5935 5935 5937 5939 5938 5941 5941 5940 5942 5942 5944 5945 5945 5946 5945 5945 5946 5949 5951 5953 5955 5957 5958
5869 5876 5879 5882 5880 5885 5885 5885 5875 5893 5897 5898 5900 5901 5904 5907 5911 5912 5914 5915 5918 5921 5924 5927 5930 5933 5934 5935 5940 5941 5942 5942 5945 5943 5943 5945 5946 5947 5948 5948 5948 5948 5949 5950 5952 5954 5956 5958 5960
5863 5875 5882 5872 5878 5886 5887 5888 5885 5889 5894 5896 5897 5897 5900 5905 5908 5909 5912 5914 5917 5918 5922 5926 5930 5932 5934 5934 5939 5941 5942 5942 5942 5941 5944 5948 5949 5949 5949 5949 5949 5950 5952 5952 5953 5956 5958 5960 5962
5861 5872 5873 5875 5877 5883 5888 5890 5895 5891 5888 5893 5885 5895 5899 5905 5907 5908 5911 5913 5916 5918 5921 5924 5928 5931 5932 5934 5935 5938 5942 5945 5943 5940 5931 5950 5952 5952 5952 5952 5952 5953 5954 5955 5956 5957 5960 5962 5964
5857 5865 5870 5871 5874 5877 5884 5887 5883 5887 5885 5885 5888 5891 5902 5903 5906 5905 5908 5911 5914 5918 5921 5923 5927 5930 5932 5934 5935 5934 5938 5944 5942 5946 5948 5953 5953 5954 5954 5955 5955 5955 5956 5957 5959 5960 5961 5963 5965
5850 5858 5865 5869 5872 5876 5884 5883 5879 5880 5878 5871 5888 5889 5894 5896 5899 5903 5906 5908 5911 5916 5920 5922 5925 5928 5931 5934 5935 5936 5939 5939 5943 5945 5949 5952 5955 5956 5955 5956 5956 5958 5959 5960 5961 5962 5964 5965 5966
5846 5856 5861 5865 5870 5876 5881 5878 5876 5874 5876 5884 5888 5891 5886 5897 5900 5898 5903 5902 5906 5910 5913 5917 5921 5925 5928 5932 5935 5937 5939 5939 5944 5949 5947 5951 5955 5956 5947 5957 5955 5957 5960 5962 5964 5964 5965 5967 5968
5843 5847 5861 5868 5872 5877 5873 5869 5866 5872 5874 5883 5881 5885 5883 5888 5893 5885 5893 5896 5901 5905 5907 5915 5916 5920 5923 5927 5932 5935 5938 5942 5943 5945 5949 5952 5954 5956 5957 5959 5959 5957 5958 5962 5965 5967 5967 5968 5969
5831 5846 5853 5857 5863 5872 5868 5868 5863 5870 5869 5874 5882 5887 5887 5889 5892 5886 5889 5895 5898 5897 5904 5912 5915 5917 5920 5923 5927 5930 5934 5938 5942 5947 5949 5948 5953 5956 5959 5961 5960 5960 5959 5962 5964 5967 5969 5970 5970
5832 5833 5843 5852 5860 5864 5861 5863 5857 5857 5864 5871 5880 5883 5883 5885 5885 5873 5873 5889 5890 5896 5897 5902 5909 5912 5917 5921 5926 5928 5930 5934 5938 5942 5945 5945 5950 5955 5957 5959 5960 5959 5961 5961 5964 5967 5969 5970 5971
5827 5834 5841 5844 5851 5856 5845 5848 5850 5846 5858 5866 5869 5875 5878 5880 5878 5883 5886 5885 5886 5864 5867 5884 5907 5905 5907 5914 5920 5926 5928 5931 5935 5938 5940 5943 5941 5953 5954 5956 5958 5959 5962 5961 5964 5966 5967 5969 5970